Location: Barrio de Canyet
(41.4665°N, 2.2381°E)
Time: 19:04:12
(UTC+00:00)

Cosmos 1340 Rocket - Pass Details

Date: 09 April 2020
Orbit: 529 x 559 km, 81.2° (Epoch: 31 May)

Event Time Altitude Azimuth Distance (km) Brightness Sun altitude
Rises 19:03:13 0° 167° (SSE) 2,726 6.1 -7.7°
Reaches altitude 10° 19:05:31 10° 158° (SSE) 1,833 5.1 -8.1°
Maximum altitude 19:09:10 34° 93° (E) 930 3.5 -8.7°
Drops below altitude 10° 19:12:50 10° 28° (NNE) 1,833 5.4 -9.4°
Sets 19:15:08 0° 20° (NNE) 2,726 6.4 -9.8°
